Preview of NWS' New Version of Forecast
This preview is not operational and should not be used for support decisions.

Regional Weather Roundup (RWR)

Issued by Gray - Portland, ME (GYX)

                            
874 
ASUS41 KGYX 251610
RWRGYX
WEATHER ROUNDUP FOR MAINE AND NEW HAMPSHIRE
NATIONAL WEATHER SERVICE GRAY ME
1200 PM EDT MON MAR 25 2019

MEZ002-005-006-010-012-015-018-020-021-024-026-027-029-251700-
MAINE
  
CITY           SKY/WX    TMP DP  RH WIND       PRES   REMARKS
PORTLAND       FAIR      38   4  24 W9        30.06S                  
SANFORD        FAIR      38   3  23 W17G23    30.06S                  
BAR HARBOR     FAIR      34   1  24 W12G17    30.01F                  
WISCASSET      FAIR      38   5  25 W8        30.05F                  
ROCKLAND       FAIR      36   5  27 W15G23    30.02F                  
FRYEBURG       FAIR      35  -1  21 MISG      30.05F                  
LEWISTONAUBURN FAIR      34   2  25 NW8       30.04F                  
AUGUSTA        FAIR      33   0  24 W17G26    30.04F                  
WATERVILLE     FAIR      33   3  28 W15G23    30.00F                  
BANGOR         FAIR      33  -1  23 NW13G25   30.01F                  
GREENVILLE       N/A     23  -4  30 NW15G26   29.91F WCI  10          
MILLINOCKET    NOT AVBL                                               
HOULTON        FAIR      26  -1  31 W18G26    29.91F WCI  13          
PRESQUE ISLE   FAIR     N/A N/A N/A W16G26    29.91F                  
FRENCHVILLE    PTSUNNY   20   0  41 W15       29.85F WCI   6          
CARIBOU        FAIR      22   0  38 W8G26     29.88F                  
$$

NHZ002-005-008-009-011-012-014-251700-
NEW HAMPSHIRE
  
CITY           SKY/WX    TMP DP  RH WIND       PRES   REMARKS
ROCHESTER      FAIR      38   4  24 NW18      30.06S                  
NASHUA         FAIR      41   1  18 W13G23    30.09F                  
MANCHESTER     FAIR      40  -1  18 N9G16     30.07F                  
CONCORD        FAIR      38   4  24 NW15G22   30.08F                  
LACONIA        FAIR      34  -1  22 NW13G18   30.07F                  
PLYMOUTH       FAIR      32  -4  21 NW16G25   30.08F                  
BERLIN         FAIR      28   2  32 W8G18     30.01F                  
WHITEFIELD     FAIR      30   1  29 W10       30.04S                  
JAFFREY        FAIR      37   4  25 W12       30.06S                  
KEENE          FAIR      38   3  23 N8        30.09                   
LEBANON        FAIR      35   6  29 MISG      30.09F                  
MT WASHINGTON  MOSUNNY    1  -6  71 W62G74      N/A  WCI -31          
$$

VTZ005-007-008-251700-
VERMONT
  
CITY           SKY/WX    TMP DP  RH WIND       PRES   REMARKS
ST JOHNSBURY     N/A     28   0  29 MISG      30.08S                  
MONTPELIER     FAIR      24   0  35 NW15G23   30.12S WCI  11          
BURLINGTON     FAIR      28  -1  28 NW10      30.16F WCI  19          
$$

MAZ007-012-024-CTZ003-RIZ002-NYZ038-NYZ072-251700-
SOUTHERN NEW ENGLAND AND NY
  
CITY           SKY/WX    TMP DP  RH WIND       PRES   REMARKS
BOSTON         FAIR      45  17  32 NW9G16    30.08F                  
WORCESTER      FAIR      41  16  36 W14G21    30.04F                  
NANTUCKET      CLOUDY    45  32  60 N13       30.06R                  
HARTFORD       PTSUNNY   49  19  30 VRB6      30.08S                  
ALBANY         FAIR      42   1  18 N9        30.15S                  
NEW YORK CITY  CLOUDY    48  28  46 N7        30.08S                  
$$

ANZ081-ANZ082-ANZ150-NHZ014-MEZ023>029-251700-
COASTAL MARINE OBSERVATIONS
  
STATION/POSITION TIME  TEMP    WIND        PRES    WAVE
                       AIR SEA DIR/SP/G            HT/PER
                 (UTC) (F)     (DEG/KT/KT) (MB)    (FT/S)
MOUNT DESERT ROC 1600   33     280/ 18/ 19 1016.4F
MATINICUS ROCK   1500   33     300/ 18/ 19 1016.6F
ISLE OF SHOALS   1500   36     310/ 13/ 14 1018.0F
CASHES LEDGE BUO 1550   36 40              1017.9F   4/ 5
$$

.............KEY..............
   WCI - WIND CHILL
   TC  - TEMPERATURE IN CELSIUS
   VSB - VISIBILITY IN MILES
   HX  - HEAT INDEX
   FAIR- INDICATES FEW OR NO CLOUDS BELOW 12,000 FT, WITH NO 
         SIGNIFICANT WEATHER AND/OR OBSTRUCTIONS TO VISIBILITY.


  


000
ASUS41 KGYX 251610
RWRGYX
WEATHER ROUNDUP FOR MAINE AND NEW HAMPSHIRE
NATIONAL WEATHER SERVICE GRAY ME
1200 PM EDT MON MAR 25 2019

MEZ002-005-006-010-012-015-018-020-021-024-026-027-029-251700-
MAINE
  
CITY           SKY/WX    TMP DP  RH WIND       PRES   REMARKS
PORTLAND       FAIR      38   4  24 W9        30.06S                  
SANFORD        FAIR      38   3  23 W17G23    30.06S                  
BAR HARBOR     FAIR      34   1  24 W12G17    30.01F                  
WISCASSET      FAIR      38   5  25 W8        30.05F                  
ROCKLAND       FAIR      36   5  27 W15G23    30.02F                  
FRYEBURG       FAIR      35  -1  21 MISG      30.05F                  
LEWISTONAUBURN FAIR      34   2  25 NW8       30.04F                  
AUGUSTA        FAIR      33   0  24 W17G26    30.04F                  
WATERVILLE     FAIR      33   3  28 W15G23    30.00F                  
BANGOR         FAIR      33  -1  23 NW13G25   30.01F                  
GREENVILLE       N/A     23  -4  30 NW15G26   29.91F WCI  10          
MILLINOCKET    NOT AVBL                                               
HOULTON        FAIR      26  -1  31 W18G26    29.91F WCI  13          
PRESQUE ISLE   FAIR     N/A N/A N/A W16G26    29.91F                  
FRENCHVILLE    PTSUNNY   20   0  41 W15       29.85F WCI   6          
CARIBOU        FAIR      22   0  38 W8G26     29.88F                  
$$

NHZ002-005-008-009-011-012-014-251700-
NEW HAMPSHIRE
  
CITY           SKY/WX    TMP DP  RH WIND       PRES   REMARKS
ROCHESTER      FAIR      38   4  24 NW18      30.06S                  
NASHUA         FAIR      41   1  18 W13G23    30.09F                  
MANCHESTER     FAIR      40  -1  18 N9G16     30.07F                  
CONCORD        FAIR      38   4  24 NW15G22   30.08F                  
LACONIA        FAIR      34  -1  22 NW13G18   30.07F                  
PLYMOUTH       FAIR      32  -4  21 NW16G25   30.08F                  
BERLIN         FAIR      28   2  32 W8G18     30.01F                  
WHITEFIELD     FAIR      30   1  29 W10       30.04S                  
JAFFREY        FAIR      37   4  25 W12       30.06S                  
KEENE          FAIR      38   3  23 N8        30.09                   
LEBANON        FAIR      35   6  29 MISG      30.09F                  
MT WASHINGTON  MOSUNNY    1  -6  71 W62G74      N/A  WCI -31          
$$

VTZ005-007-008-251700-
VERMONT
  
CITY           SKY/WX    TMP DP  RH WIND       PRES   REMARKS
ST JOHNSBURY     N/A     28   0  29 MISG      30.08S                  
MONTPELIER     FAIR      24   0  35 NW15G23   30.12S WCI  11          
BURLINGTON     FAIR      28  -1  28 NW10      30.16F WCI  19          
$$

MAZ007-012-024-CTZ003-RIZ002-NYZ038-NYZ072-251700-
SOUTHERN NEW ENGLAND AND NY
  
CITY           SKY/WX    TMP DP  RH WIND       PRES   REMARKS
BOSTON         FAIR      45  17  32 NW9G16    30.08F                  
WORCESTER      FAIR      41  16  36 W14G21    30.04F                  
NANTUCKET      CLOUDY    45  32  60 N13       30.06R                  
HARTFORD       PTSUNNY   49  19  30 VRB6      30.08S                  
ALBANY         FAIR      42   1  18 N9        30.15S                  
NEW YORK CITY  CLOUDY    48  28  46 N7        30.08S                  
$$

ANZ081-ANZ082-ANZ150-NHZ014-MEZ023>029-251700-
COASTAL MARINE OBSERVATIONS
  
STATION/POSITION TIME  TEMP    WIND        PRES    WAVE
                       AIR SEA DIR/SP/G            HT/PER
                 (UTC) (F)     (DEG/KT/KT) (MB)    (FT/S)
MOUNT DESERT ROC 1600   33     280/ 18/ 19 1016.4F
MATINICUS ROCK   1500   33     300/ 18/ 19 1016.6F
ISLE OF SHOALS   1500   36     310/ 13/ 14 1018.0F
CASHES LEDGE BUO 1550   36 40              1017.9F   4/ 5
$$

.............KEY..............
   WCI - WIND CHILL
   TC  - TEMPERATURE IN CELSIUS
   VSB - VISIBILITY IN MILES
   HX  - HEAT INDEX
   FAIR- INDICATES FEW OR NO CLOUDS BELOW 12,000 FT, WITH NO 
         SIGNIFICANT WEATHER AND/OR OBSTRUCTIONS TO VISIBILITY.